Location: *
(34.0486°S, 61.7880°E)
Time: 19:45:57
(UTC+00:00)

CSL-04 Rocket - Pass Details

Date: 01 April 2020
Orbit: 807 x 859 km, 98.9° (Epoch: 27 May)

Event Time Altitude Azimuth Distance (km) Brightness Sun altitude
Rises 15:50:55 0° 172° (S) 3,450 6.9 -26.3°
Reaches altitude 10° 15:53:21 10° 175° (S) 2,501 6.2 -26.8°
Maximum altitude 15:58:48 58° 253° (WSW) 979 4.2 -27.9°
Drops below altitude 10° 16:04:06 10° 331° (NNW) 2,438 6.2 -28.9°
Sets 16:06:27 0° 335° (NNW) 3,356 6.9 -29.4°
